| time (UTC) | temp F | wind direction | speed knots | gust knots | rain 1hr in | rain 24hr in | rain mn in | humidity % | barometer mb |
| 20260508131831 | 46 | 62 | 3.5 | 7.0 | 0.00 | 0.03 | 0.03 | 89 | 1017.3 |
| 20260508131327 | 46 | 98 | 7.0 | 9.6 | 0.00 | 0.03 | 0.03 | 89 | 1017.2 |
| 20260508130824 | 46 | 45 | 6.1 | 9.6 | 0.00 | 0.03 | 0.03 | 89 | 1017.2 |
| 20260508130321 | 46 | 81 | 7.0 | 9.6 | 0.07 | 0.03 | 0.03 | 89 | 1017.2 |
| 20260508125817 | 46 | 44 | 5.2 | 9.6 | 0.07 | 0.03 | 0.03 | 89 | 1017.4 |
| 20260508125313 | 46 | 47 | 5.2 | 13.9 | 0.00 | 0.02 | 0.02 | 89 | 1017.4 |
| 20260508124811 | 45 | 64 | 3.5 | 8.7 | 0.00 | 0.02 | 0.02 | 89 | 1017.4 |
| 20260508124308 | 45 | 73 | 3.5 | 7.0 | 0.00 | 0.02 | 0.02 | 89 | 1017.4 |
| 20260508123806 | 45 | 67 | 5.2 | 9.6 | 0.00 | 0.02 | 0.02 | 88 | 1017.4 |
| 20260508123304 | 46 | 359 | 5.2 | 11.3 | 0.00 | 0.02 | 0.02 | 88 | 1017.5 |
| 20260508122800 | 45 | 58 | 7.0 | 8.7 | 0.07 | 0.02 | 0.02 | 88 | 1017.6 |
| 20260508122257 | 45 | 45 | 9.6 | 12.2 | 0.07 | 0.02 | 0.02 | 88 | 1017.6 |
| 20260508121754 | 45 | 70 | 3.5 | 9.6 | 0.00 | 0.01 | 0.01 | 88 | 1017.6 |
| 20260508121253 | 45 | 58 | 7.8 | 12.2 | 0.00 | 0.01 | 0.01 | 87 | 1017.6 |
| 20260508120749 | 45 | 40 | 6.1 | 11.3 | 0.00 | 0.01 | 0.01 | 87 | 1017.6 |
| 20260508120248 | 45 | 39 | 6.1 | 9.6 | 0.00 | 0.01 | 0.01 | 87 | 1017.8 |
| 20260508115745 | 45 | 58 | 6.1 | 13.0 | 0.00 | 0.01 | 0.01 | 86 | 1017.8 |
| 20260508115242 | 45 | 22 | 6.1 | 12.2 | 0.05 | 0.01 | 0.01 | 86 | 1017.8 |
| 20260508114733 | 45 | 79 | 3.5 | 13.0 | 0.05 | 0.01 | 0.01 | 86 | 1017.9 |
| 20260508114230 | 46 | 51 | 3.5 | 8.7 | 0.00 | 0.00 | 0.00 | 85 | 1017.8 |
| 20260508113727 | 46 | 48 | 7.0 | 13.0 | 0.00 | 0.00 | 0.00 | 85 | 1017.7 |
| 20260508113225 | 46 | 62 | 7.0 | 13.0 | 0.00 | 0.00 | 0.00 | 84 | 1017.6 |
| 20260508112720 | 46 | 51 | 4.3 | 7.8 | 0.00 | 0.00 | 0.00 | 84 | 1017.6 |
| 20260508112218 | 46 | 34 | 7.8 | 9.6 | 0.00 | 0.00 | 0.00 | 84 | 1017.8 |
| 20260508111714 | 46 | 77 | 3.5 | 9.6 | 0.00 | 0.00 | 0.00 | 84 | 1017.6 |
| 20260508111212 | 46 | 54 | 6.1 | 13.0 | 0.00 | 0.00 | 0.00 | 84 | 1017.5 |
| 20260508110709 | 46 | 46 | 3.5 | 13.9 | 0.00 | 0.00 | 0.00 | 83 | 1017.5 |
| 20260508110206 | 46 | 36 | 4.3 | 8.7 | 0.00 | 0.00 | 0.00 | 84 | 1017.5 |
| 20260508105706 | 46 | 37 | 2.6 | 8.7 | 0.00 | 0.00 | 0.00 | 84 | 1017.4 |
| 20260508105203 | 46 | 64 | 2.6 | 8.7 | 0.00 | 0.00 | 0.00 | 84 | 1017.3 |
| 20260508104700 | 46 | 42 | 7.0 | 11.3 | 0.00 | 0.00 | 0.00 | 84 | 1017.2 |
| 20260508104157 | 46 | 67 | 5.2 | 13.9 | 0.00 | 0.00 | 0.00 | 84 | 1017.3 |
| 20260508103654 | 46 | 65 | 7.0 | 13.0 | 0.00 | 0.00 | 0.00 | 86 | 1017.2 |
| 20260508103151 | 46 | 58 | 4.3 | 7.8 | 0.00 | 0.00 | 0.00 | 88 | 1017.0 |
| 20260508102649 | 46 | 69 | 3.5 | 6.1 | 0.00 | 0.00 | 0.00 | 88 | 1017.3 |
| 20260508102147 | 46 | 41 | 5.2 | 9.6 | 0.00 | 0.00 | 0.00 | 87 | 1017.5 |
| 20260508101643 | 46 | 71 | 6.1 | 9.6 | 0.00 | 0.00 | 0.00 | 86 | 1017.2 |
| 20260508101141 | 46 | 36 | 3.5 | 6.1 | 0.00 | 0.00 | 0.00 | 85 | 1017.1 |
| 20260508100638 | 46 | 43 | 4.3 | 7.8 | 0.00 | 0.00 | 0.00 | 85 | 1017.2 |
| 20260508100137 | 46 | 73 | 7.0 | 7.8 | 0.00 | 0.00 | 0.00 | 85 | 1017.1 |
| 20260508095633 | 46 | 44 | 1.7 | 7.8 | 0.00 | 0.00 | 0.00 | 86 | 1017.0 |
| 20260508095130 | 46 | 58 | 7.8 | 11.3 | 0.00 | 0.00 | 0.00 | 86 | 1017.0 |
| 20260508094627 | 45 | 29 | 3.5 | 8.7 | 0.00 | 0.00 | 0.00 | 86 | 1017.1 |
| 20260508094123 | 45 | 69 | 7.0 | 9.6 | 0.00 | 0.00 | 0.00 | 86 | 1017.1 |
| 20260508093621 | 45 | 85 | 6.1 | 11.3 | 0.00 | 0.00 | 0.00 | 86 | 1017.1 |
| 20260508093118 | 45 | 54 | 4.3 | 8.7 | 0.00 | 0.00 | 0.00 | 86 | 1017.1 |
| 20260508092615 | 45 | 36 | 4.3 | 8.7 | 0.00 | 0.00 | 0.00 | 86 | 1017.2 |
| 20260508092114 | 45 | 77 | 4.3 | 8.7 | 0.00 | 0.00 | 0.00 | 86 | 1017.2 |
| 20260508091611 | 45 | 50 | 7.8 | 12.2 | 0.00 | 0.00 | 0.00 | 86 | 1017.1 |
| 20260508091108 | 45 | 60 | 11.3 | 14.8 | 0.00 | 0.00 | 0.00 | 86 | 1017.0 |
| 20260508090606 | 45 | 89 | 6.1 | 12.2 | 0.00 | 0.00 | 0.00 | 87 | 1016.9 |
| 20260508090103 | 45 | 54 | 3.5 | 12.2 | 0.00 | 0.00 | 0.00 | 87 | 1017.0 |
| 20260508085559 | 45 | 70 | 6.1 | 8.7 | 0.00 | 0.00 | 0.00 | 88 | 1017.1 |
| 20260508085056 | 45 | 43 | 7.0 | 12.2 | 0.00 | 0.00 | 0.00 | 88 | 1017.0 |
| 20260508084552 | 45 | 53 | 4.3 | 9.6 | 0.00 | 0.00 | 0.00 | 88 | 1017.0 |
| 20260508084050 | 44 | 72 | 4.3 | 13.0 | 0.00 | 0.00 | 0.00 | 88 | 1017.0 |
| 20260508083547 | 44 | 58 | 6.1 | 9.6 | 0.00 | 0.00 | 0.00 | 88 | 1016.8 |
| 20260508083043 | 44 | 43 | 7.0 | 12.2 | 0.00 | 0.00 | 0.00 | 88 | 1017.0 |
| 20260508082539 | 44 | 73 | 7.8 | 12.2 | 0.00 | 0.00 | 0.00 | 88 | 1016.9 |
| 20260508082037 | 44 | 48 | 4.3 | 11.3 | 0.00 | 0.00 | 0.00 | 88 | 1016.9 |
| 20260508081534 | 45 | 19 | 3.5 | 8.7 | 0.00 | 0.00 | 0.00 | 88 | 1017.0 |
| 20260508081030 | 45 | 66 | 4.3 | 9.6 | 0.00 | 0.00 | 0.00 | 88 | 1016.8 |
| 20260508080528 | 45 | 52 | 5.2 | 13.0 | 0.00 | 0.00 | 0.00 | 88 | 1017.0 |
| 20260508080025 | 45 | 64 | 2.6 | 12.2 | 0.00 | 0.00 | 0.00 | 88 | 1016.9 |
| 20260508075522 | 45 | 75 | 3.5 | 7.0 | 0.00 | 0.00 | 0.00 | 88 | 1016.7 |
| 20260508075019 | 45 | 65 | 2.6 | 7.8 | 0.00 | 0.00 | 0.00 | 88 | 1016.6 |
| 20260508074517 | 45 | 33 | 3.5 | 8.7 | 0.00 | 0.00 | 0.00 | 88 | 1016.8 |
| 20260508074013 | 44 | 92 | 5.2 | 7.8 | 0.00 | 0.00 | 0.00 | 88 | 1016.9 |
| 20260508073511 | 44 | 59 | 5.2 | 8.7 | 0.00 | 0.00 | 0.00 | 88 | 1016.4 |
| 20260508073008 | 44 | 31 | 6.1 | 8.7 | 0.00 | 0.00 | 0.00 | 89 | 1016.7 |
| 20260508072504 | 44 | 62 | 7.0 | 11.3 | 0.00 | 0.00 | 0.00 | 88 | 1016.5 |
| 20260508072001 | 44 | 78 | 3.5 | 6.1 | 0.00 | 0.00 | 0.00 | 89 | 1016.7 |
| 20260508071459 | 44 | 56 | 3.5 | 9.6 | 0.00 | 0.00 | 0.00 | 88 | 1016.4 |
| 20260508070956 | 44 | 61 | 3.5 | 13.0 | 0.00 | 0.00 | 0.00 | 89 | 1016.4 |
| 20260508070454 | 44 | 74 | 7.0 | 8.7 | 0.00 | 0.00 | 0.00 | 89 | 1016.5 |
| 20260508065952 | 44 | 88 | 5.2 | 8.7 | 0.00 | 0.00 | 0.00 | 89 | 1016.4 |
| 20260508065450 | 45 | 69 | 1.7 | 7.0 | 0.00 | 0.00 | 0.00 | 89 | 1016.6 |
| 20260508064948 | 45 | 49 | 6.1 | 7.8 | 0.00 | 0.00 | 0.00 | 89 | 1016.4 |
| 20260508064445 | 44 | 50 | 5.2 | 7.8 | 0.00 | 0.00 | 0.00 | 89 | 1016.2 |
| 20260508063943 | 44 | 47 | 8.7 | 13.0 | 0.00 | 0.00 | 0.00 | 89 | 1016.2 |
| 20260508063440 | 45 | 77 | 4.3 | 7.0 | 0.00 | 0.00 | 0.00 | 89 | 1016.3 |
| 20260508062938 | 44 | 34 | 3.5 | 8.7 | 0.00 | 0.00 | 0.00 | 89 | 1016.2 |
| 20260508062435 | 44 | 78 | 3.5 | 8.7 | 0.00 | 0.00 | 0.00 | 89 | 1016.4 |
| 20260508061932 | 44 | 241 | 5.2 | 13.0 | 0.00 | 0.00 | 0.00 | 89 | 1016.1 |
| 20260508061429 | 44 | 67 | 7.8 | 20.0 | 0.00 | 0.00 | 0.00 | 90 | 1016.2 |
| 20260508060925 | 44 | 41 | 3.5 | 7.8 | 0.00 | 0.00 | 0.00 | 90 | 1016.3 |
| 20260508060423 | 44 | 81 | 6.1 | 9.6 | 0.00 | 0.00 | 0.00 | 91 | 1016.2 |
| 20260508055919 | 44 | 36 | 4.3 | 11.3 | 0.00 | 0.00 | 0.00 | 91 | 1016.2 |
| 20260508055416 | 44 | 50 | 2.6 | 9.6 | 0.00 | 0.00 | 0.00 | 92 | 1016.1 |
| 20260508054912 | 44 | 85 | 0.9 | 7.8 | 0.00 | 0.00 | 0.00 | 92 | 1016.2 |
| 20260508054410 | 44 | 27 | 8.7 | 13.9 | 0.00 | 0.00 | 0.00 | 92 | 1016.3 |
| 20260508053906 | 44 | 47 | 2.6 | 5.2 | 0.00 | 0.00 | 0.00 | 93 | 1016.3 |
| 20260508053404 | 44 | 64 | 1.7 | 12.2 | 0.00 | 0.00 | 0.00 | 94 | 1016.1 |
| 20260508052901 | 44 | 70 | 7.8 | 13.0 | 0.00 | 0.00 | 0.00 | 94 | 1016.1 |
| 20260508052359 | 44 | 45 | 3.5 | 9.6 | 0.00 | 0.00 | 0.00 | 94 | 1016.1 |
| 20260508051854 | 44 | 70 | 6.1 | 13.0 | 0.00 | 0.00 | 0.00 | 95 | 1016.0 |
| 20260508051350 | 44 | 61 | 2.6 | 8.7 | 0.00 | 0.00 | 0.00 | 95 | 1016.1 |
| 20260508050846 | 44 | 55 | 5.2 | 7.8 | 0.00 | 0.00 | 0.00 | 95 | 1016.1 |
| 20260508050344 | 44 | 73 | 5.2 | 11.3 | 0.00 | 0.00 | 0.00 | 95 | 1016.0 |
| 20260508045839 | 44 | 63 | 0.9 | 6.1 | 0.00 | 0.00 | 0.00 | 96 | 1016.0 |
| 20260508045337 | 44 | 66 | 3.5 | 8.7 | 0.00 | 0.00 | 0.00 | 96 | 1015.9 |
| 20260508044835 | 44 | 46 | 5.2 | 7.8 | 0.00 | 0.00 | 0.00 | 96 | 1015.8 |
| 20260508044331 | 44 | 47 | 3.5 | 6.1 | 0.00 | 0.00 | 0.00 | 96 | 1015.9 |
| 20260508043827 | 44 | 42 | 5.2 | 7.8 | 0.00 | 0.00 | 0.00 | 96 | 1016.0 |
| 20260508043324 | 44 | 63 | 4.3 | 8.7 | 0.00 | 0.00 | 0.00 | 96 | 1015.9 |
| 20260508042821 | 44 | 30 | 3.5 | 9.6 | 0.00 | 0.00 | 0.00 | 97 | 1015.8 |
| 20260508042319 | 44 | 23 | 7.0 | 9.6 | 0.00 | 0.00 | 0.00 | 97 | 1015.7 |
| 20260508041815 | 44 | 55 | 1.7 | 9.6 | 0.00 | 0.00 | 0.00 | 97 | 1015.8 |
| 20260508041312 | 44 | 61 | 2.6 | 8.7 | 0.00 | 0.00 | 0.00 | 97 | 1015.7 |
| 20260508040808 | 44 | 12 | 5.2 | 11.3 | 0.00 | 0.00 | 0.00 | 97 | 1015.9 |
| 20260508040306 | 44 | 28 | 5.2 | 7.0 | 0.00 | 0.00 | 0.00 | 97 | 1015.7 |
| 20260508035803 | 44 | 63 | 1.7 | 8.7 | 0.00 | 0.00 | 0.00 | 97 | 1015.8 |
| 20260508035300 | 44 | 12 | 6.1 | 8.7 | 0.00 | 0.00 | 0.00 | 97 | 1015.4 |
| 20260508034756 | 44 | 43 | 5.2 | 8.7 | 0.00 | 0.00 | 0.00 | 97 | 1015.5 |
| 20260508034254 | 44 | 49 | 3.5 | 8.7 | 0.00 | 0.00 | 0.00 | 97 | 1015.5 |
| 20260508033751 | 44 | 74 | 2.6 | 7.0 | 0.00 | 0.00 | 0.00 | 97 | 1015.3 |
| 20260508033249 | 44 | 49 | 3.5 | 9.6 | 0.00 | 0.00 | 0.00 | 97 | 1015.4 |
| 20260508032746 | 44 | 70 | 2.6 | 7.8 | 0.00 | 0.00 | 0.00 | 97 | 1015.4 |
| 20260508032243 | 44 | 53 | 5.2 | 9.6 | 0.00 | 0.00 | 0.00 | 97 | 1015.4 |
| 20260508031740 | 44 | 46 | 0.9 | 7.0 | 0.00 | 0.00 | 0.00 | 97 | 1015.4 |
| 20260508031236 | 44 | 57 | 4.3 | 8.7 | 0.00 | 0.00 | 0.00 | 97 | 1015.3 |
| 20260508030733 | 44 | 62 | 2.6 | 7.8 | 0.00 | 0.00 | 0.00 | 97 | 1015.4 |
| 20260508030230 | 44 | 27 | 2.6 | 6.1 | 0.00 | 0.00 | 0.00 | 97 | 1015.4 |
| 20260508025727 | 44 | 61 | 6.1 | 8.7 | 0.00 | 0.00 | 0.00 | 97 | 1015.3 |
| 20260508025224 | 45 | 33 | 1.7 | 7.0 | 0.00 | 0.00 | 0.00 | 97 | 1015.2 |
| 20260508024720 | 45 | 26 | 4.3 | 7.8 | 0.00 | 0.00 | 0.00 | 97 | 1015.0 |
| 20260508024217 | 45 | 54 | 2.6 | 5.2 | 0.00 | 0.00 | 0.00 | 97 | 1015.2 |
| 20260508023713 | 45 | 48 | 1.7 | 5.2 | 0.00 | 0.00 | 0.00 | 97 | 1015.0 |
| 20260508023211 | 45 | 75 | 1.7 | 6.1 | 0.00 | 0.00 | 0.00 | 96 | 1015.1 |
| 20260508022707 | 45 | 49 | 2.6 | 7.0 | 0.00 | 0.00 | 0.00 | 97 | 1015.0 |
| 20260508022204 | 45 | 57 | 2.6 | 7.0 | 0.00 | 0.00 | 0.00 | 96 | 1015.0 |
| 20260508021700 | 45 | 74 | 2.6 | 8.7 | 0.00 | 0.00 | 0.00 | 97 | 1015.1 |
| 20260508021155 | 45 | 53 | 1.7 | 5.2 | 0.00 | 0.00 | 0.00 | 96 | 1015.0 |
| 20260508020654 | 45 | 342 | 3.5 | 3.5 | 0.00 | 0.00 | 0.00 | 96 | 1015.1 |
| 20260508020151 | 45 | 71 | 2.6 | 7.0 | 0.00 | 0.00 | 0.00 | 96 | 1015.1 |
| 20260508015648 | 45 | 30 | 5.2 | 8.7 | 0.00 | 0.00 | 0.00 | 96 | 1015.0 |
| 20260508015145 | 45 | 73 | 2.6 | 3.5 | 0.00 | 0.00 | 0.00 | 96 | 1014.8 |
| 20260508014641 | 45 | 66 | 1.7 | 5.2 | 0.00 | 0.00 | 0.00 | 96 | 1014.9 |
| 20260508014137 | 45 | 13 | 1.7 | 6.1 | 0.00 | 0.00 | 0.00 | 96 | 1014.8 |
| 20260508013634 | 45 | 38 | 3.5 | 6.1 | 0.00 | 0.00 | 0.00 | 96 | 1015.0 |
| 20260508013131 | 45 | 38 | 4.3 | 5.2 | 0.00 | 0.00 | 0.00 | 96 | 1015.1 |
| 20260508012628 | 46 | 42 | 2.6 | 8.7 | 0.00 | 0.00 | 0.00 | 96 | 1014.8 |
| 20260508012125 | 46 | 61 | 3.5 | 7.0 | 0.00 | 0.00 | 0.00 | 96 | 1014.7 |
| 20260508011624 | 46 | 95 | 3.5 | 6.1 | 0.00 | 0.00 | 0.00 | 96 | 1014.8 |
| 20260508011121 | 46 | 74 | 2.6 | 5.2 | 0.00 | 0.00 | 0.00 | 96 | 1014.9 |
| 20260508010617 | 46 | 21 | 3.5 | 6.1 | 0.00 | 0.00 | 0.00 | 96 | 1014.8 |
| 20260508010115 | 46 | 20 | 3.5 | 7.8 | 0.00 | 0.00 | 0.00 | 96 | 1015.0 |
| 20260508005611 | 46 | 49 | 4.3 | 7.8 | 0.00 | 0.00 | 0.00 | 96 | 1014.8 |
| 20260508005108 | 46 | 357 | 1.7 | 5.2 | 0.00 | 0.00 | 0.00 | 96 | 1014.9 |
| 20260508004604 | 46 | 53 | 1.7 | 5.2 | 0.00 | 0.00 | 0.00 | 96 | 1014.9 |
| 20260508004101 | 46 | 76 | 2.6 | 7.0 | 0.00 | 0.00 | 0.00 | 96 | 1015.0 |
| 20260508003557 | 46 | 16 | 3.5 | 7.8 | 0.00 | 0.00 | 0.00 | 96 | 1014.9 |
| 20260508003055 | 46 | 40 | 2.6 | 3.5 | 0.00 | 0.00 | 0.00 | 96 | 1014.8 |
| 20260508002551 | 46 | 55 | 0.9 | 6.1 | 0.00 | 0.00 | 0.00 | 95 | 1015.0 |
| 20260508002049 | 46 | 86 | 4.3 | 5.2 | 0.00 | 0.00 | 0.00 | 95 | 1015.1 |
| 20260508001544 | 46 | 31 | 2.6 | 2.6 | 0.00 | 0.00 | 0.00 | 95 | 1014.9 |
| 20260508001040 | 46 | 62 | 3.5 | 6.1 | 0.00 | 0.00 | 0.00 | 95 | 1015.0 |
| 20260508000536 | 46 | 26 | 2.6 | 3.5 | 0.00 | 0.00 | 0.00 | 95 | 1014.9 |
| 20260508000034 | 46 | 86 | 3.5 | 5.2 | 0.00 | 0.00 | 0.00 | 95 | 1014.8 |
| 20260507235531 | 46 | 62 | 2.6 | 5.2 | 0.00 | 0.00 | 0.00 | 95 | 1014.7 |
| 20260507235028 | 46 | 66 | 0.9 | 5.2 | 0.00 | 0.00 | 0.00 | 95 | 1014.6 |
| 20260507234524 | 46 | 70 | 0.9 | 6.1 | 0.00 | 0.00 | 0.00 | 95 | 1014.6 |
| 20260507234021 | 46 | 72 | 2.6 | 7.8 | 0.00 | 0.00 | 0.00 | 95 | 1014.7 |
| 20260507233518 | 46 | 58 | 0.9 | 2.6 | 0.00 | 0.00 | 0.00 | 95 | 1014.2 |
| 20260507233017 | 46 | 54 | 3.5 | 6.1 | 0.00 | 0.00 | 0.00 | 95 | 1014.5 |
| 20260507232512 | 46 | 65 | 4.3 | 7.8 | 0.00 | 0.00 | 0.00 | 95 | 1014.4 |
| 20260507232010 | 46 | 83 | 0.9 | 2.6 | 0.00 | 0.00 | 0.00 | 95 | 1014.4 |
| 20260507231506 | 46 | 51 | 2.6 | 2.6 | 0.00 | 0.00 | 0.00 | 95 | 1014.7 |
| 20260507231003 | 46 | 39 | 3.5 | 6.1 | 0.00 | 0.00 | 0.00 | 95 | 1014.4 |
| 20260507230500 | 47 | 58 | 0.9 | 6.1 | 0.00 | 0.00 | 0.00 | 94 | 1014.4 |
| 20260507225955 | 47 | 51 | 2.6 | 5.2 | 0.00 | 0.00 | 0.00 | 95 | 1014.6 |
| 20260507225452 | 47 | 43 | 2.6 | 6.1 | 0.00 | 0.00 | 0.00 | 94 | 1014.7 |
| 20260507224948 | 47 | 47 | 2.6 | 5.2 | 0.00 | 0.00 | 0.00 | 94 | 1014.5 |
| 20260507224444 | 47 | 84 | 1.7 | 6.1 | 0.00 | 0.00 | 0.00 | 94 | 1014.4 |
| 20260507223941 | 47 | 55 | 1.7 | 6.1 | 0.00 | 0.00 | 0.00 | 94 | 1014.4 |
| 20260507223437 | 47 | 20 | 2.6 | 5.2 | 0.00 | 0.00 | 0.00 | 94 | 1014.2 |
| 20260507222934 | 47 | 37 | 3.5 | 6.1 | 0.00 | 0.00 | 0.00 | 94 | 1014.2 |
| 20260507222431 | 47 | 78 | 0.9 | 5.2 | 0.00 | 0.00 | 0.00 | 94 | 1014.1 |
| 20260507221927 | 47 | 63 | 1.7 | 5.2 | 0.00 | 0.00 | 0.00 | 94 | 1014.4 |
| 20260507221424 | 47 | 32 | 5.2 | 7.8 | 0.00 | 0.00 | 0.00 | 94 | 1014.4 |
| 20260507220920 | 47 | 65 | 0.9 | 6.1 | 0.00 | 0.00 | 0.00 | 94 | 1014.1 |
| 20260507220418 | 47 | 62 | 1.7 | 5.2 | 0.00 | 0.00 | 0.00 | 94 | 1014.1 |
| 20260507215914 | 47 | 15 | 3.5 | 5.2 | 0.00 | 0.00 | 0.00 | 94 | 1014.2 |
| 20260507215411 | 47 | 75 | 0.9 | 7.0 | 0.00 | 0.00 | 0.00 | 94 | 1014.2 |
| 20260507214908 | 47 | 65 | 0.0 | 1.7 | 0.00 | 0.00 | 0.00 | 94 | 1014.1 |
| 20260507214406 | 47 | 45 | 5.2 | 7.8 | 0.00 | 0.00 | 0.00 | 94 | 1014.4 |
| 20260507213901 | 47 | 57 | 2.6 | 5.2 | 0.00 | 0.00 | 0.00 | 94 | 1014.2 |
| 20260507213358 | 47 | 68 | 1.7 | 5.2 | 0.00 | 0.00 | 0.00 | 94 | 1014.4 |
| 20260507212855 | 47 | 24 | 2.6 | 5.2 | 0.00 | 0.00 | 0.00 | 94 | 1014.1 |
| 20260507212351 | 47 | 32 | 2.6 | 5.2 | 0.00 | 0.00 | 0.00 | 94 | 1014.1 |
| 20260507211847 | 47 | 64 | 4.3 | 7.8 | 0.00 | 0.00 | 0.00 | 94 | 1014.1 |
| 20260507211344 | 47 | 11 | 4.3 | 6.1 | 0.00 | 0.00 | 0.00 | 94 | 1013.8 |
| 20260507210841 | 47 | 78 | 1.7 | 5.2 | 0.00 | 0.00 | 0.00 | 94 | 1013.7 |
| 20260507210338 | 47 | 33 | 3.5 | 7.0 | 0.00 | 0.00 | 0.00 | 95 | 1013.8 |
| 20260507205834 | 47 | 47 | 7.0 | 7.8 | 0.00 | 0.24 | 0.24 | 95 | 1013.7 |
| 20260507205332 | 47 | 73 | 3.5 | 12.2 | 0.00 | 0.24 | 0.24 | 95 | 1013.6 |
| 20260507204827 | 47 | 35 | 1.7 | 3.5 | 0.00 | 0.24 | 0.24 | 95 | 1013.5 |
| 20260507204325 | 47 | 47 | 3.5 | 7.8 | 0.00 | 0.24 | 0.24 | 95 | 1013.4 |
| 20260507203823 | 47 | 28 | 2.6 | 8.7 | 0.00 | 0.24 | 0.24 | 95 | 1013.5 |
| 20260507203321 | 47 | 41 | 3.5 | 6.1 | 0.00 | 0.24 | 0.24 | 95 | 1013.5 |
| 20260507202816 | 47 | 52 | 0.9 | 5.2 | 0.00 | 0.24 | 0.24 | 95 | 1013.5 |
| 20260507202313 | 47 | 49 | 2.6 | 9.6 | 0.00 | 0.24 | 0.24 | 95 | 1013.4 |
| 20260507201808 | 47 | 50 | 1.7 | 1.7 | 0.00 | 0.24 | 0.24 | 95 | 1013.3 |
| 20260507201305 | 47 | 36 | 3.5 | 5.2 | 0.00 | 0.24 | 0.24 | 95 | 1013.2 |
| 20260507200801 | 47 | 38 | 1.7 | 3.5 | 0.00 | 0.24 | 0.24 | 95 | 1013.3 |
| 20260507200257 | 47 | 2 | 3.5 | 5.2 | 0.00 | 0.24 | 0.24 | 95 | 1013.3 |
| 20260507195753 | 48 | 27 | 2.6 | 6.1 | 0.00 | 0.24 | 0.24 | 95 | 1013.1 |
| 20260507195251 | 48 | 44 | 3.5 | 7.0 | 0.00 | 0.24 | 0.24 | 95 | 1013.2 |
| 20260507194748 | 48 | 5 | 1.7 | 7.0 | 0.00 | 0.24 | 0.24 | 95 | 1013.4 |
| 20260507194244 | 48 | 61 | 3.5 | 6.1 | 0.00 | 0.24 | 0.24 | 95 | 1013.2 |
| 20260507193740 | 48 | 66 | 2.6 | 6.1 | 0.00 | 0.24 | 0.24 | 95 | 1013.1 |
| 20260507193237 | 48 | 52 | 1.7 | 5.2 | 0.00 | 0.24 | 0.24 | 95 | 1013.1 |
| 20260507192733 | 48 | 48 | 1.7 | 3.5 | 0.00 | 0.24 | 0.24 | 95 | 1013.0 |
| 20260507192230 | 48 | 94 | 1.7 | 7.0 | 0.00 | 0.24 | 0.24 | 95 | 1012.9 |
| 20260507191726 | 48 | 10 | 2.6 | 6.1 | 0.00 | 0.24 | 0.24 | 95 | 1012.7 |
| 20260507191223 | 48 | 357 | 3.5 | 7.0 | 0.00 | 0.24 | 0.24 | 95 | 1012.7 |
| 20260507190720 | 48 | 49 | 2.6 | 5.2 | 0.00 | 0.24 | 0.24 | 95 | 1012.7 |
| 20260507190219 | 48 | 39 | 2.6 | 7.0 | 0.00 | 0.24 | 0.24 | 95 | 1012.6 |
| 20260507185717 | 48 | 26 | 2.6 | 7.0 | 0.00 | 0.24 | 0.24 | 95 | 1012.7 |
| 20260507185213 | 48 | 338 | 5.2 | 7.0 | 0.00 | 0.24 | 0.24 | 95 | 1012.4 |
| 20260507184711 | 48 | 76 | 0.9 | 3.5 | 0.00 | 0.24 | 0.24 | 95 | 1012.4 |
| 20260507184209 | 48 | 49 | 1.7 | 2.6 | 0.00 | 0.24 | 0.24 | 95 | 1012.5 |
| 20260507183705 | 48 | 21 | 3.5 | 7.8 | 0.00 | 0.24 | 0.24 | 95 | 1012.5 |
| 20260507183202 | 49 | 56 | 2.6 | 7.0 | 0.00 | 0.24 | 0.24 | 95 | 1012.5 |
| 20260507182659 | 49 | 0 | 2.6 | 5.2 | 0.00 | 0.24 | 0.24 | 95 | 1012.4 |
| 20260507182149 | 49 | 23 | 2.6 | 3.5 | 0.00 | 0.24 | 0.24 | 95 | 1012.3 |
| 20260507181646 | 49 | 9 | 0.9 | 5.2 | 0.00 | 0.24 | 0.24 | 95 | 1012.3 |
| 20260507181142 | 49 | 17 | 1.7 | 3.5 | 0.00 | 0.24 | 0.24 | 95 | 1012.3 |
| 20260507180638 | 49 | 7 | 4.3 | 7.0 | 0.00 | 0.24 | 0.24 | 95 | 1012.0 |
| 20260507180136 | 49 | 86 | 0.0 | 7.0 | 0.00 | 0.24 | 0.24 | 95 | 1012.2 |
| 20260507175631 | 49 | 16 | 2.6 | 7.0 | 0.00 | 0.24 | 0.24 | 95 | 1012.1 |
| 20260507175129 | 50 | 51 | 5.2 | 11.3 | 0.00 | 0.24 | 0.24 | 95 | 1012.1 |
| 20260507174626 | 50 | 0 | 2.6 | 6.1 | 0.00 | 0.24 | 0.24 | 95 | 1012.2 |
| 20260507174124 | 50 | 298 | 2.6 | 3.5 | 0.00 | 0.24 | 0.24 | 95 | 1012.1 |
| 20260507173621 | 50 | 45 | 4.3 | 6.1 | 0.00 | 0.24 | 0.24 | 95 | 1011.9 |
| 20260507173118 | 50 | 56 | 0.9 | 5.2 | 0.00 | 0.24 | 0.24 | 95 | 1012.1 |
| 20260507172613 | 50 | 83 | 2.6 | 5.2 | 0.00 | 0.24 | 0.24 | 95 | 1012.0 |
| 20260507172111 | 50 | 31 | 4.3 | 7.0 | 0.00 | 0.24 | 0.24 | 95 | 1011.9 |
| 20260507171606 | 50 | 295 | 5.2 | 6.1 | 0.00 | 0.24 | 0.24 | 94 | 1011.8 |
| 20260507171103 | 50 | 31 | 2.6 | 7.0 | 0.00 | 0.24 | 0.24 | 94 | 1011.5 |
| 20260507170600 | 50 | 69 | 1.7 | 6.1 | 0.00 | 0.24 | 0.24 | 94 | 1011.6 |
| 20260507170057 | 50 | 66 | 3.5 | 6.1 | 0.00 | 0.24 | 0.24 | 94 | 1011.6 |
| 20260507165552 | 50 | 349 | 3.5 | 5.2 | 0.00 | 0.24 | 0.24 | 94 | 1011.5 |
| 20260507165049 | 50 | 76 | 1.7 | 3.5 | 0.00 | 0.24 | 0.24 | 94 | 1011.5 |
| 20260507164546 | 50 | 9 | 3.5 | 6.1 | 0.00 | 0.24 | 0.24 | 94 | 1011.4 |
| 20260507164043 | 51 | 40 | 3.5 | 7.0 | 0.00 | 0.24 | 0.24 | 94 | 1011.2 |
| 20260507163540 | 51 | 93 | 1.7 | 6.1 | 0.00 | 0.24 | 0.24 | 94 | 1011.3 |
| 20260507163038 | 51 | 29 | 4.3 | 7.0 | 0.00 | 0.24 | 0.24 | 94 | 1011.0 |
| 20260507162538 | 51 | 341 | 3.5 | 6.1 | 0.00 | 0.24 | 0.24 | 93 | 1011.0 |
| 20260507162035 | 51 | 294 | 3.5 | 6.1 | 0.00 | 0.24 | 0.24 | 93 | 1011.0 |
| 20260507161532 | 51 | 4 | 2.6 | 8.7 | 0.00 | 0.24 | 0.24 | 93 | 1011.1 |
| 20260507161028 | 51 | 312 | 4.3 | 9.6 | 0.00 | 0.24 | 0.24 | 93 | 1011.0 |
| 20260507160524 | 51 | 320 | 3.5 | 9.6 | 0.00 | 0.24 | 0.24 | 93 | 1011.0 |
| 20260507160021 | 52 | 3 | 3.5 | 9.6 | 0.00 | 0.24 | 0.24 | 92 | 1010.9 |
| 20260507155516 | 52 | 305 | 5.2 | 7.8 | 0.00 | 0.24 | 0.24 | 92 | 1011.0 |
| 20260507155014 | 52 | 305 | 7.8 | 8.7 | 0.00 | 0.24 | 0.24 | 92 | 1011.0 |
| 20260507154510 | 52 | 280 | 6.1 | 7.0 | 0.00 | 0.24 | 0.24 | 92 | 1011.1 |
| 20260507154009 | 52 | 275 | 2.6 | 7.8 | 0.00 | 0.24 | 0.24 | 91 | 1011.0 |
| 20260507153504 | 53 | 287 | 4.3 | 8.7 | 0.00 | 0.24 | 0.24 | 91 | 1011.0 |
| 20260507153000 | 53 | 275 | 6.1 | 7.8 | 0.00 | 0.24 | 0.24 | 91 | 1011.0 |
| 20260507152456 | 53 | 276 | 7.8 | 9.6 | 0.00 | 0.24 | 0.24 | 90 | 1010.8 |
| 20260507151953 | 54 | 306 | 5.2 | 8.7 | 0.00 | 0.24 | 0.24 | 89 | 1010.5 |
| 20260507151449 | 54 | 317 | 7.0 | 9.6 | 0.00 | 0.24 | 0.24 | 89 | 1010.5 |
| 20260507150946 | 55 | 301 | 5.2 | 7.8 | 0.00 | 0.24 | 0.24 | 89 | 1010.6 |
| 20260507150443 | 55 | 315 | 4.3 | 7.8 | 0.00 | 0.24 | 0.24 | 88 | 1010.5 |
| 20260507145939 | 56 | 351 | 7.8 | 8.7 | 0.00 | 0.24 | 0.24 | 86 | 1010.5 |
| 20260507145435 | 58 | 350 | 7.8 | 8.7 | 0.00 | 0.24 | 0.24 | 85 | 1010.4 |
| 20260507144932 | 58 | 327 | 3.5 | 6.1 | 0.00 | 0.24 | 0.24 | 85 | 1010.4 |
| 20260507144429 | 59 | 323 | 1.7 | 7.8 | 0.00 | 0.24 | 0.24 | 84 | 1010.2 |
| 20260507143926 | 59 | 301 | 5.2 | 7.0 | 0.00 | 0.24 | 0.24 | 83 | 1010.1 |
| 20260507143424 | 59 | 324 | 3.5 | 6.1 | 0.00 | 0.24 | 0.24 | 82 | 1010.2 |
| 20260507142920 | 60 | 343 | 1.7 | 7.8 | 0.00 | 0.24 | 0.24 | 82 | 1010.1 |
| 20260507142416 | 60 | 314 | 3.5 | 6.1 | 0.00 | 0.24 | 0.24 | 82 | 1009.8 |
| 20260507141913 | 60 | 67 | 3.5 | 6.1 | 0.00 | 0.24 | 0.24 | 82 | 1009.6 |
| 20260507141409 | 61 | 309 | 4.3 | 7.8 | 0.00 | 0.24 | 0.24 | 81 | 1009.6 |
| 20260507140906 | 61 | 344 | 5.2 | 7.0 | 0.00 | 0.24 | 0.24 | 80 | 1009.6 |
| 20260507140403 | 61 | 39 | 1.7 | 8.7 | 0.00 | 0.24 | 0.24 | 81 | 1009.5 |
| 20260507135901 | 61 | 332 | 3.5 | 5.2 | 0.00 | 0.24 | 0.24 | 81 | 1009.7 |
| 20260507135357 | 62 | 331 | 5.2 | 6.1 | 0.00 | 0.24 | 0.24 | 80 | 1009.8 |
| 20260507134855 | 61 | 306 | 3.5 | 5.2 | 0.00 | 0.24 | 0.24 | 81 | 1009.7 |
| 20260507134350 | 62 | 298 | 3.5 | 5.2 | 0.00 | 0.24 | 0.24 | 80 | 1009.6 |
| 20260507133847 | 62 | 19 | 3.5 | 5.2 | 0.00 | 0.24 | 0.24 | 81 | 1009.4 |
| 20260507133342 | 62 | 333 | 3.5 | 6.1 | 0.00 | 0.24 | 0.24 | 79 | 1009.5 |
| 20260507132841 | 63 | 22 | 2.6 | 7.0 | 0.00 | 0.24 | 0.24 | 78 | 1009.4 |
| 20260507132337 | 63 | 347 | 1.7 | 6.1 | 0.00 | 0.24 | 0.24 | 78 | 1009.4 |